• In Austria
  • List of Countries
  • For 7 days
  • Water Temperature
  • Satellite Maps
  • Weather Map
  • News
  • Weather Widgets
  • user-avatar
    Login

    Hourly Weather Graz

    Today, 13 December, Wednesday

    Time Temperature Precipitation Wind Pressure Humidity
    00:00 +4°C° 1 mm 1 mps 724 mmHg 93%
    01:00 +4°C° 1 mm 1 mps 724 mmHg 93%
    02:00 +4°C° 1 mm 1 mps 724 mmHg 93%
    03:00 +3°C° 1 mm 1 mps 724 mmHg 93%
    04:00 +3°C° 1 mm 1 mps 725 mmHg 93%
    05:00 +3°C° 0.5 mm 1 mps 725 mmHg 93%
    06:00 +3°C° 0.5 mm 1 mps 725 mmHg 93%
    07:00 +2°C° 0.5 mm 0 mps 725 mmHg 94%
    08:00 +2°C° 0.3 mm 0 mps 726 mmHg 92%
    09:00 +2°C° 0.3 mm 0 mps 726 mmHg 90%
    10:00 +3°C° 0.3 mm 0 mps 726 mmHg 88%
    11:00 +4°C° 0.1 mm 1 mps 725 mmHg 87%
    12:00 +4°C° 0.1 mm 1 mps 725 mmHg 85%
    13:00 +4°C° 0.1 mm 1 mps 724 mmHg 83%
    14:00 +4°C° 0 mm 1 mps 724 mmHg 86%
    15:00 +3°C° 0 mm 1 mps 723 mmHg 89%
    16:00 +3°C° 0 mm 1 mps 723 mmHg 91%
    17:00 +2°C° 0 mm 1 mps 722 mmHg 92%
    18:00 +2°C° 0 mm 1 mps 722 mmHg 93%
    19:00 +1°C° 0 mm 1 mps 722 mmHg 94%
    20:00 +1°C° 0 mm 1 mps 721 mmHg 94%
    21:00 +1°C° 0 mm 1 mps 720 mmHg 94%
    22:00 +1°C° 0 mm 1 mps 720 mmHg 94%
    23:00 +1°C° 0 mm 1 mps 719 mmHg 94%

    Tomorrow, 14 December, Thursday

    Time Temperature Precipitation Wind Pressure Humidity
    00:00 +1°C° 0 mm 1 mps 718 mmHg 93%
    01:00 -1°C° 0 mm 2 mps 718 mmHg 93%
    02:00 -1°C° 0 mm 2 mps 717 mmHg 93%
    03:00 -1°C° 0 mm 2 mps 716 mmHg 92%
    04:00 +1°C° 0 mm 2 mps 716 mmHg 91%
    05:00 +1°C° 0 mm 2 mps 715 mmHg 91%
    06:00 +1°C° 0 mm 2 mps 715 mmHg 90%
    07:00 +1°C° 0 mm 2 mps 715 mmHg 89%
    08:00 +2°C° 0 mm 2 mps 715 mmHg 88%
    09:00 +3°C° 0 mm 2 mps 716 mmHg 86%
    10:00 +4°C° 0 mm 2 mps 716 mmHg 84%
    11:00 +5°C° 0 mm 2 mps 716 mmHg 84%
    12:00 +5°C° 0 mm 2 mps 716 mmHg 83%
    13:00 +7°C° 0 mm 1 mps 716 mmHg 83%
    14:00 +6°C° 0.1 mm 1 mps 716 mmHg 86%
    15:00 +5°C° 0.1 mm 1 mps 716 mmHg 89%
    16:00 +5°C° 0.1 mm 1 mps 716 mmHg 92%
    17:00 +4°C° 0 mm 1 mps 716 mmHg 92%
    18:00 +4°C° 0 mm 1 mps 716 mmHg 92%
    19:00 +4°C° 0 mm 1 mps 716 mmHg 93%
    20:00 +4°C° 0 mm 1 mps 715 mmHg 94%
    21:00 +3°C° 0 mm 1 mps 715 mmHg 94%
    22:00 +3°C° 0 mm 1 mps 714 mmHg 95%
    23:00 +3°C° 0 mm 1 mps 713 mmHg 95%

    Day after tomorrow, 15 December, Friday

    Time Temperature Precipitation Wind Pressure Humidity
    00:00 +3°C° 0 mm 1 mps 712 mmHg 95%
    01:00 +3°C° 0 mm 2 mps 711 mmHg 95%
    02:00 +3°C° 0 mm 2 mps 711 mmHg 94%
    03:00 +3°C° 0 mm 2 mps 710 mmHg 94%
    04:00 +3°C° 0 mm 2 mps 709 mmHg 93%
    05:00 +4°C° 0.1 mm 2 mps 710 mmHg 93%
    06:00 +4°C° 0.1 mm 2 mps 710 mmHg 93%
    07:00 +4°C° 0.1 mm 2 mps 710 mmHg 93%
    08:00 +4°C° 0.8 mm 2 mps 710 mmHg 91%
    09:00 +4°C° 0.8 mm 2 mps 711 mmHg 88%
    10:00 +4°C° 0.8 mm 2 mps 712 mmHg 85%
    11:00 +4°C° 0.5 mm 2 mps 712 mmHg 84%
    12:00 +3°C° 0.5 mm 2 mps 713 mmHg 83%
    13:00 +4°C° 0.5 mm 1 mps 713 mmHg 81%
    14:00 +4°C° 0.2 mm 1 mps 713 mmHg 83%
    15:00 +3°C° 0.2 mm 1 mps 714 mmHg 85%
    16:00 +3°C° 0.2 mm 1 mps 714 mmHg 87%
    17:00 +3°C° 0.6 mm 1 mps 714 mmHg 89%
    18:00 +2°C° 0.6 mm 1 mps 715 mmHg 91%
    19:00 +2°C° 0.6 mm 1 mps 715 mmHg 93%
    20:00 +2°C° 0.8 mm 1 mps 715 mmHg 93%
    21:00 +2°C° 0.8 mm 1 mps 716 mmHg 93%
    22:00 +2°C° 0.8 mm 1 mps 716 mmHg 94%
    23:00 +2°C° 0.3 mm 1 mps 716 mmHg 93%

    16 December, Saturday

    Time Temperature Precipitation Wind Pressure Humidity
    00:00 +1°C° 0.3 mm 1 mps 716 mmHg 93%
    01:00 +1°C° 0.3 mm 1 mps 716 mmHg 93%
    02:00 +1°C° 0 mm 1 mps 716 mmHg 92%
    03:00 +1°C° 0 mm 1 mps 716 mmHg 91%
    04:00 +1°C° 0 mm 1 mps 716 mmHg 90%
    05:00 0°C° 0 mm 1 mps 716 mmHg 90%
    06:00 -1°C° 0 mm 1 mps 717 mmHg 89%
    07:00 -1°C° 0 mm 1 mps 717 mmHg 88%
    08:00 0°C° 0 mm 1 mps 718 mmHg 86%
    09:00 +1°C° 0 mm 1 mps 718 mmHg 84%
    10:00 +2°C° 0 mm 1 mps 719 mmHg 82%
    11:00 +3°C° 0 mm 1 mps 719 mmHg 80%
    12:00 +4°C° 0 mm 1 mps 719 mmHg 77%
    13:00 +5°C° 0 mm 1 mps 719 mmHg 75%
    14:00 +4°C° 0 mm 1 mps 719 mmHg 78%
    15:00 +3°C° 0 mm 1 mps 720 mmHg 81%
    16:00 +1°C° 0 mm 1 mps 720 mmHg 85%
    17:00 +1°C° 0 mm 1 mps 720 mmHg 86%
    18:00 0°C° 0 mm 1 mps 721 mmHg 86%
    19:00 0°C° 0 mm 1 mps 722 mmHg 87%
    20:00 -1°C° 0 mm 1 mps 722 mmHg 87%
    21:00 -1°C° 0 mm 1 mps 722 mmHg 88%
    22:00 -1°C° 0 mm 1 mps 723 mmHg 88%
    23:00 -1°C° 0 mm 1 mps 723 mmHg 88%

    17 December, Sunday

    Time Temperature Precipitation Wind Pressure Humidity
    00:00 -1°C° 0 mm 1 mps 723 mmHg 88%
    01:00 -1°C° 0 mm 1 mps 723 mmHg 88%
    02:00 -1°C° 0 mm 1 mps 723 mmHg 88%
    03:00 -1°C° 0 mm 1 mps 723 mmHg 88%
    04:00 -1°C° 0 mm 1 mps 724 mmHg 88%
    05:00 -1°C° 0 mm 1 mps 724 mmHg 88%
    06:00 -1°C° 0 mm 1 mps 725 mmHg 87%
    07:00 -1°C° 0 mm 1 mps 725 mmHg 87%
    08:00 -1°C° 0 mm 1 mps 725 mmHg 85%
    09:00 -2°C° 0 mm 2 mps 726 mmHg 82%
    10:00 -1°C° 0 mm 2 mps 726 mmHg 80%
    11:00 +1°C° 0 mm 2 mps 727 mmHg 77%
    12:00 +2°C° 0 mm 2 mps 727 mmHg 73%
    13:00 +2°C° 0 mm 2 mps 727 mmHg 70%
    14:00 +1°C° 0 mm 2 mps 727 mmHg 74%
    15:00 +2°C° 0 mm 1 mps 727 mmHg 77%
    16:00 +1°C° 0 mm 1 mps 727 mmHg 81%
    17:00 0°C° 0 mm 1 mps 728 mmHg 82%
    18:00 -1°C° 0 mm 1 mps 728 mmHg 84%
    19:00 -1°C° 0 mm 1 mps 729 mmHg 85%
    20:00 -1°C° 0 mm 1 mps 730 mmHg 85%
    21:00 -1°C° 0 mm 1 mps 730 mmHg 85%
    22:00 -2°C° 0 mm 1 mps 731 mmHg 86%
    23:00 -2°C° 0 mm 1 mps 731 mmHg 86%

    18 December, Monday

    Time Temperature Precipitation Wind Pressure Humidity
    00:00 -2°C° 0 mm 1 mps 731 mmHg 86%
    01:00 -2°C° 0 mm 1 mps 731 mmHg 86%
    02:00 -2°C° 0 mm 1 mps 731 mmHg 86%
    03:00 -2°C° 0 mm 1 mps 731 mmHg 87%
    04:00 -3°C° 0 mm 1 mps 732 mmHg 87%
    05:00 -3°C° 0 mm 1 mps 732 mmHg 87%
    06:00 -3°C° 0 mm 1 mps 732 mmHg 87%
    07:00 -3°C° 0 mm 1 mps 732 mmHg 86%
    08:00 -2°C° 0 mm 1 mps 733 mmHg 84%
    09:00 -3°C° 0 mm 2 mps 733 mmHg 81%
    10:00 -2°C° 0 mm 2 mps 733 mmHg 78%
    11:00 -1°C° 0 mm 2 mps 733 mmHg 74%
    12:00 -1°C° 0 mm 2 mps 732 mmHg 71%
    13:00 +1°C° 0 mm 2 mps 732 mmHg 67%
    14:00 +1°C° 0 mm 1 mps 732 mmHg 71%
    15:00 0°C° 0 mm 1 mps 732 mmHg 75%
    16:00 -1°C° 0 mm 1 mps 731 mmHg 80%
    17:00 -1°C° 0 mm 1 mps 731 mmHg 81%
    18:00 -2°C° 0 mm 1 mps 732 mmHg 83%
    19:00 -3°C° 0 mm 1 mps 732 mmHg 85%
    20:00 -3°C° 0 mm 1 mps 732 mmHg 85%
    21:00 -3°C° 0 mm 1 mps 732 mmHg 85%
    22:00 -3°C° 0 mm 1 mps 732 mmHg 86%
    23:00 -3°C° 0 mm 1 mps 732 mmHg 86%
    Show more